Weather History for KFTG - January, 2013

Change the Weather History Date:

Thursday, January 31, 2013

  Actual Average (KDEN) Record (KDEN)
Temperature  
Mean Temperature 34 °F 31 °F  
Max Temperature 46 °F 44 °F 70 °F (1954)
Min Temperature 23 °F 17 °F -24 °F (1951)
Degree Days  
Heating Degree Days 30 34  
Month to date heating degree days 1059  
Since 1 July heating degree days 3531  
Cooling Degree Days 0 0  
Month to date cooling degree days 0  
Year to date cooling degree days 0  
Moisture  
Dew Point 22 °F    
Average Humidity 68    
Maximum Humidity 93    
Minimum Humidity 34    
Precipitation  
Precipitation 0.00 in 0.01 in 1.22 in (1883)
Month to date precipitation 0.41  
Year to date precipitation 0.41  
Snow  
Snow 0.00 in - - ()
Month to date snowfall  
Since 1 July snowfall  
Snow Depth -    
Sea Level Pressure  
Sea Level Pressure 29.98 in    
Wind  
Wind Speed 6 mph (South)    
Max Wind Speed 17 mph    
Max Gust Speed 17 mph    
Visibility 10 miles    
Events      
T = Trace of Precipitation, MM = Missing Value Source: NWS Daily Summary

Daily Weather History Graph

Daily Weather History Graph

Search for Another Location

Airport or City:

Trip Planner

Search our weather history database for the weather conditions in past years. The results will help you decide how hot, cold, wet, or windy it might be!

Date:

Astronomy

Jan. 31, 2013 Rise Set
Actual Time 7:06 AM MST 5:17 PM MST
Civil Twilight 6:38 AM MST 5:45 PM MST
Nautical Twilight 6:05 AM MST 6:17 PM MST
Astronomical Twilight 5:34 AM MST 6:49 PM MST
Moon 10:21 PM MST (1/31) 9:08 AM MST (1/31)
Length of Visible Light 11h 07m
Length of Day
10h 10m
Waning Gibbous, 79% of the Moon is Illuminated
Jan 31
Waning Gibbous
Feb 3
Last Quarter
Feb 10
New
Feb 17
First Quarter
Feb 25
Full

Hourly Weather History & Observations

Time (MST) Temp. Windchill Dew Point Humidity Pressure Visibility Wind Dir Wind Speed Gust Speed Precip Events Conditions
12:06 AM 32.0 °F - 19.4 °F 60% 29.87 in 10.0 mi Calm Calm - N/A   Clear
12:26 AM 30.2 °F 26.7 °F 19.4 °F 64% 29.87 in 10.0 mi SSW 3.5 mph - N/A   Clear
12:46 AM 26.6 °F - 17.6 °F 69% 29.87 in 10.0 mi Calm Calm - N/A   Clear
1:06 AM 26.6 °F 21.2 °F 19.4 °F 74% 29.87 in 10.0 mi SW 4.6 mph - N/A   Clear
1:26 AM 28.4 °F 22.2 °F 17.6 °F 64% 29.87 in 10.0 mi SW 5.8 mph - N/A   Clear
1:47 AM 32.0 °F 25.6 °F 17.6 °F 55% 29.87 in 10.0 mi SW 6.9 mph - N/A   Clear
2:07 AM 32.0 °F 28.7 °F 17.6 °F 55% 29.87 in 10.0 mi West 3.5 mph - N/A   Clear
2:27 AM 33.8 °F 27.7 °F 17.6 °F 52% 29.88 in 10.0 mi WSW 6.9 mph - N/A   Clear
2:47 AM 30.2 °F 26.7 °F 19.4 °F 64% 29.89 in 10.0 mi West 3.5 mph - N/A   Clear
3:07 AM 32.0 °F 25.6 °F 19.4 °F 60% 29.89 in 10.0 mi West 6.9 mph - N/A   Clear
3:27 AM 32.0 °F 24.2 °F 19.4 °F 60% 29.89 in 10.0 mi WSW 9.2 mph - N/A   Clear
3:47 AM 32.0 °F 23.6 °F 17.6 °F 55% 29.89 in 10.0 mi WSW 10.4 mph - N/A   Clear
4:06 AM 32.0 °F 22.5 °F 19.4 °F 60% 29.89 in 10.0 mi West 12.7 mph - N/A   Clear
4:27 AM 32.0 °F 23.0 °F 19.4 °F 60% 29.90 in 10.0 mi West 11.5 mph - N/A   Clear
4:47 AM 30.2 °F 19.8 °F 19.4 °F 64% 29.91 in 10.0 mi NNE 13.8 mph 17.3 mph N/A   Scattered Clouds
5:07 AM 28.4 °F 23.3 °F 17.6 °F 64% 29.91 in 10.0 mi NE 4.6 mph - N/A   Scattered Clouds
5:27 AM 26.6 °F 17.5 °F 17.6 °F 69% 29.93 in 10.0 mi East 9.2 mph - N/A   Clear
5:47 AM 26.6 °F 18.2 °F 21.2 °F 80% 29.94 in 10.0 mi ENE 8.1 mph - N/A   Clear
6:07 AM 23.0 °F 13.9 °F 21.2 °F 93% 29.94 in 10.0 mi East 8.1 mph - N/A   Clear
6:27 AM 23.0 °F 13.1 °F 21.2 °F 93% 29.95 in 10.0 mi ESE 9.2 mph - N/A   Clear
6:47 AM 23.0 °F 13.1 °F 21.2 °F 93% 29.97 in 10.0 mi SE 9.2 mph - N/A   Clear
7:06 AM 23.0 °F 13.1 °F 21.2 °F 93% 29.98 in 10.0 mi ESE 9.2 mph - N/A   Clear
8:48 AM 28.4 °F 18.0 °F 23.0 °F 80% 30.06 in 50.0 mi SE 12.7 mph - N/A   Scattered Clouds
9:48 AM 32.0 °F 23.6 °F 24.8 °F 75% 30.08 in 50.0 mi SSE 10.4 mph - N/A   Scattered Clouds
10:48 AM 39.2 °F - 23.0 °F 52% 30.09 in 50.0 mi Calm Calm - N/A   Scattered Clouds
11:58 AM 46.4 °F 39.5 °F 19.4 °F 34% 30.06 in 50.0 mi West 17.3 mph - N/A   Partly Cloudy
12:50 PM 42.8 °F 36.6 °F 26.6 °F 53% 30.07 in 50.0 mi NE 11.5 mph - N/A   Partly Cloudy
1:48 PM 41.0 °F 34.3 °F 28.4 °F 61% 30.06 in 50.0 mi ENE 11.5 mph - N/A   Scattered Clouds
2:52 PM 42.8 °F - 26.6 °F 53% 30.06 in 50.0 mi Calm Calm - N/A   Scattered Clouds
3:51 PM 41.0 °F 35.2 °F 28.4 °F 61% 30.06 in 50.0 mi East 9.2 mph - N/A   Scattered Clouds
9:06 PM 32.0 °F 26.4 °F 26.6 °F 80% 30.11 in 10.0 mi SSE 5.8 mph - N/A   Clear
9:26 PM 32.0 °F 27.5 °F 24.8 °F 75% 30.10 in 10.0 mi South 4.6 mph - N/A   Clear
9:46 PM 32.0 °F 27.5 °F 24.8 °F 75% 30.10 in 10.0 mi SSE 4.6 mph - N/A   Clear
10:07 PM 32.0 °F 23.6 °F 24.8 °F 75% 30.10 in 10.0 mi ESE 10.4 mph - N/A   Clear
10:26 PM 30.2 °F 21.9 °F 23.0 °F 75% 30.10 in 10.0 mi SSE 9.2 mph - N/A   Clear
10:47 PM 32.0 °F 24.8 °F 23.0 °F 69% 30.10 in 10.0 mi South 8.1 mph - N/A   Clear
11:07 PM 32.0 °F 24.2 °F 24.8 °F 75% 30.10 in 10.0 mi South 9.2 mph - N/A   Clear
11:27 PM 32.0 °F 24.8 °F 23.0 °F 69% 30.10 in 10.0 mi South 8.1 mph - N/A   Clear
11:47 PM 30.2 °F 21.9 °F 23.0 °F 75% 30.09 in 10.0 mi South 9.2 mph - N/A   Clear